Location: Étavigny
(49.1201°N, 2.9800°E)
Time: 00:58:44
(UTC+00:00)

Cosmos 1238 Rocket - Pass Details

Date: 28 January 2023
Orbit: 372 x 962 km, 83.0° (Epoch: 21 March)

Event Time Altitude Azimuth Distance (km) Brightness Sun altitude
Rises 17:52:48 0° 346° (NNW) 2,823 6.5 -12.3°
Reaches altitude 10° 17:54:52 10° 343° (NNW) 2,006 5.7 -12.6°
Maximum altitude 17:59:15 57° 265° (W) 835 4.1 -13.3°
Drops below altitude 10° 18:04:28 10° 188° (S) 2,374 6.3 -14.2°
Sets 18:07:05 0° 184° (S) 3,391 7.0 -14.6°
